This is the latest recevied weather packets stored in our database for station/object OE3BCB-14. If no packets are shown the sender has not sent any weather packets the latest 1 day(s).
| Time | Temp. | Humidity | Pressure | Rain* | Wind** | Luminosity | Snow |
|---|---|---|---|---|---|---|---|
| 1777989686 | 40.56° C | 15% | 1005.9 hPa | - | 0 m/s | 213 W/m² | - |
| 1777989384 | 40° C | 15% | 1005.8 hPa | - | 1.34 m/s, 180° | 115 W/m² | - |
| 1777989081 | 42.78° C | 15% | 1006 hPa | - | 0 m/s | 100 W/m² | - |
| 1777988779 | 41.11° C | 17% | 1006 hPa | - | 0 m/s | 103 W/m² | - |
| 1777988476 | 37.22° C | 16% | 1006 hPa | - | 0 m/s | 74 W/m² | - |
| 1777988174 | 37.78° C | 17% | 1006 hPa | - | 0 m/s | 85 W/m² | - |
| 1777987872 | 38.33° C | 18% | 1006.2 hPa | - | 0 m/s | 126 W/m² | - |
| 1777987569 | 36.67° C | 17% | 1006.2 hPa | - | 0 m/s | 98 W/m² | - |
| 1777987267 | 37.22° C | 17% | 1006.3 hPa | - | 0 m/s | 113 W/m² | - |
| 1777986964 | 40.56° C | 16% | 1006.4 hPa | - | 0 m/s | 81 W/m² | - |
| 1777986662 | 42.22° C | 16% | 1006.6 hPa | - | 0 m/s | 97 W/m² | - |
| 1777986359 | 41.67° C | 17% | 1006.7 hPa | - | 0 m/s | 96 W/m² | - |
| 1777986057 | 40.56° C | 17% | 1006.7 hPa | - | 6.26 m/s, 225° | 75 W/m² | - |
| 1777985755 | 42.22° C | 17% | 1006.8 hPa | - | 0.45 m/s, 225° | 84 W/m² | - |
| 1777985452 | 42.22° C | 18% | 1006.8 hPa | - | 0 m/s | 79 W/m² | - |
| 1777985150 | 41.11° C | 18% | 1006.9 hPa | - | 0.45 m/s, 45° | 78 W/m² | - |
| 1777984848 | 40.56° C | 19% | 1007 hPa | - | 0 m/s | 87 W/m² | - |
| 1777984243 | 41.11° C | 20% | 1007.2 hPa | - | 0 m/s | 73 W/m² | - |
| 1777983940 | 40.56° C | 20% | 1007.3 hPa | - | 0 m/s | 69 W/m² | - |
| 1777983638 | 38.33° C | 21% | 1007.4 hPa | - | 0.45 m/s, 45° | 67 W/m² | - |
| 1777983335 | 37.22° C | 21% | 1007.4 hPa | - | 0.45 m/s, 45° | 67 W/m² | - |
| 1777983033 | 36.11° C | 22% | 1007.6 hPa | - | 0.45 m/s, 135° | 67 W/m² | - |
| 1777982731 | 36.11° C | 22% | 1007.7 hPa | - | 8.05 m/s, 45° | 69 W/m² | - |
| 1777982428 | 36.11° C | 23% | 1007.9 hPa | - | 0 m/s | 57 W/m² | - |
| 1777982126 | 37.78° C | 21% | 1007.9 hPa | - | 1.34 m/s, 90° | 72 W/m² | - |
* Rain since midnight (hover to see other rain measurements)
** Current wind speed in m/s (hover to see current wind gust speed)